ARG1247 SBGR-SABE

Flight info

Callsign ARG1247
Flight time N/A
Altitude 32000
Route UBSOD UZ38 UMDEX DCT CXS DCT UMRUD UN741 PAPIX PAPIX2Q
Aircraft B738/M-SDE2E3FGHIRWXY/LB1

Departure

Time 2026-04-30 22:07
Airport São Paulo/Guarulhos–Governor André Franco Montoro International Airport (SBGR)

Arrival

Time N/A
Airport Aeroparque Jorge Newbery (SABE)
Time Latitude Longitude Altitude Speed Heading
2026-04-30 21:43 -23.42912 -46.47945 2466 ft 0 kts 344°
2026-04-30 21:56 -23.42916 -46.47944 2460 ft 3 kts 344°
2026-04-30 21:56 -23.42942 -46.47936 2463 ft 2 kts 344°
2026-04-30 21:56 -23.42962 -46.47929 2460 ft 4 kts 332°
2026-04-30 21:57 -23.42974 -46.47917 2460 ft 3 kts 252°
2026-04-30 21:57 -23.42967 -46.47894 2460 ft 1 kts 252°
2026-04-30 22:00 -23.42968 -46.47898 2460 ft 3 kts 252°
2026-04-30 22:00 -23.42975 -46.47921 2461 ft 3 kts 255°
2026-04-30 22:01 -23.42981 -46.47943 2460 ft 3 kts 252°
2026-04-30 22:01 -23.42987 -46.47965 2463 ft 3 kts 253°
2026-04-30 22:01 -23.42993 -46.47988 2465 ft 3 kts 252°
2026-04-30 22:01 -23.42999 -46.48008 2464 ft 3 kts 256°
2026-04-30 22:02 -23.43004 -46.48029 2463 ft 3 kts 253°
2026-04-30 22:02 -23.43017 -46.48073 2462 ft 11 kts 253°
2026-04-30 22:02 -23.43074 -46.48130 2460 ft 13 kts 179°
2026-04-30 22:02 -23.43163 -46.48110 2463 ft 10 kts 162°
2026-04-30 22:03 -23.43208 -46.48157 2464 ft 11 kts 254°
2026-04-30 22:03 -23.43233 -46.48249 2461 ft 14 kts 253°
2026-04-30 22:03 -23.43266 -46.48328 2462 ft 10 kts 225°
2026-04-30 22:03 -23.43301 -46.48351 2465 ft 0 kts 197°
2026-04-30 22:04 -23.43303 -46.48351 2464 ft 0 kts 195°
2026-04-30 22:04 -23.43304 -46.48351 2464 ft 1 kts 194°
2026-04-30 22:04 -23.43358 -46.48348 2464 ft 10 kts 165°
2026-04-30 22:05 -23.43413 -46.48327 2460 ft 6 kts 144°
2026-04-30 22:05 -23.43418 -46.48285 2459 ft 6 kts 76°
2026-04-30 22:05 -23.43405 -46.48242 2462 ft 4 kts 73°
2026-04-30 22:05 -23.43404 -46.48241 2462 ft 0 kts 73°
2026-04-30 22:06 -23.43386 -46.48181 2464 ft 30 kts 72°
2026-04-30 22:06 -23.43250 -46.47672 2463 ft 108 kts 73°
2026-04-30 22:07 -23.42980 -46.46659 2466 ft 172 kts 74°
2026-04-30 22:07 -23.42601 -46.45312 3000 ft 191 kts 74°
2026-04-30 22:07 -23.42203 -46.43975 4167 ft 180 kts 75°
2026-04-30 22:07 -23.41795 -46.42605 4610 ft 208 kts 74°
2026-04-30 22:08 -23.41338 -46.41006 4819 ft 231 kts 76°
2026-04-30 22:08 -23.40833 -46.39235 5027 ft 260 kts 75°
2026-04-30 22:08 -23.40285 -46.37286 5478 ft 276 kts 76°
2026-04-30 22:08 -23.40215 -46.35215 6277 ft 277 kts 105°
2026-04-30 22:09 -23.40861 -46.33242 7019 ft 281 kts 110°
2026-04-30 22:09 -23.41559 -46.31222 7725 ft 286 kts 110°
2026-04-30 22:09 -23.42223 -46.29168 8532 ft 286 kts 109°
2026-04-30 22:09 -23.43015 -46.27156 8837 ft 288 kts 124°
2026-04-30 22:10 -23.44476 -46.25706 9141 ft 294 kts 152°
2026-04-30 22:10 -23.46466 -46.25096 9795 ft 298 kts 177°
2026-04-30 22:10 -23.48538 -46.25285 10463 ft 303 kts 192°
2026-04-30 22:10 -23.50655 -46.25746 10674 ft 326 kts 192°
2026-04-30 22:11 -23.55051 -46.27748 10973 ft 365 kts 226°
2026-04-30 22:11 -23.56449 -46.30085 11248 ft 375 kts 251°
2026-04-30 22:11 -23.57079 -46.32808 11855 ft 375 kts 258°
2026-04-30 22:12 -23.57608 -46.35632 12337 ft 381 kts 259°
2026-04-30 22:12 -23.58129 -46.38457 12899 ft 384 kts 258°
2026-04-30 22:12 -23.58669 -46.41322 13439 ft 387 kts 258°
2026-04-30 22:12 -23.59230 -46.44223 13955 ft 391 kts 257°
2026-04-30 22:13 -23.59804 -46.47139 14426 ft 393 kts 258°
2026-04-30 22:13 -23.60377 -46.50032 14972 ft 394 kts 258°
2026-04-30 22:13 -23.60950 -46.52972 15420 ft 397 kts 259°
2026-04-30 22:13 -23.61405 -46.55944 16003 ft 395 kts 262°
2026-04-30 22:14 -23.61806 -46.58880 16546 ft 396 kts 262°
2026-04-30 22:14 -23.62228 -46.61893 16880 ft 402 kts 261°
2026-04-30 22:14 -23.62718 -46.64867 17120 ft 404 kts 255°
2026-04-30 22:14 -23.63914 -46.67644 17175 ft 404 kts 237°
2026-04-30 22:15 -23.65512 -46.70187 17206 ft 405 kts 237°
2026-04-30 22:15 -23.67070 -46.72773 17383 ft 412 kts 238°
2026-04-30 22:15 -23.68578 -46.75399 17857 ft 412 kts 239°
2026-04-30 22:15 -23.70127 -46.78076 18305 ft 414 kts 235°
2026-04-30 22:16 -23.72159 -46.80301 18628 ft 422 kts 216°
2026-04-30 22:16 -23.74689 -46.81951 19041 ft 423 kts 211°
2026-04-30 22:17 -23.82385 -46.86680 20133 ft 427 kts 212°
2026-04-30 22:17 -23.84982 -46.88296 20487 ft 428 kts 212°
2026-04-30 22:17 -23.90165 -46.91553 21209 ft 431 kts 212°
2026-04-30 22:18 -23.92748 -46.93184 21537 ft 432 kts 212°
2026-04-30 22:18 -23.97979 -46.96494 22207 ft 435 kts 213°
2026-04-30 22:19 -24.03221 -46.99813 22824 ft 438 kts 213°
2026-04-30 22:19 -24.05870 -47.01491 23130 ft 439 kts 213°
2026-04-30 22:19 -24.11175 -47.04854 23713 ft 442 kts 213°
2026-04-30 22:20 -24.13814 -47.06529 23930 ft 444 kts 213°
2026-04-30 22:20 -24.19160 -47.09922 24425 ft 445 kts 213°
2026-04-30 22:20 -24.21844 -47.11628 24674 ft 446 kts 213°
2026-04-30 22:21 -24.24556 -47.13351 24907 ft 447 kts 214°
2026-04-30 22:21 -24.27221 -47.15056 25117 ft 448 kts 214°
2026-04-30 22:21 -24.29894 -47.16856 25337 ft 449 kts 216°
2026-04-30 22:21 -24.32509 -47.18677 25556 ft 450 kts 216°
2026-04-30 22:22 -24.35148 -47.20533 25799 ft 451 kts 216°
2026-04-30 22:22 -24.37798 -47.22400 26012 ft 452 kts 216°
2026-04-30 22:22 -24.40453 -47.24268 26247 ft 452 kts 216°
2026-04-30 22:22 -24.43093 -47.26116 26450 ft 454 kts 216°
2026-04-30 22:23 -24.45768 -47.27986 26617 ft 456 kts 216°
2026-04-30 22:23 -24.48455 -47.29859 26821 ft 457 kts 216°
2026-04-30 22:23 -24.51126 -47.31721 27035 ft 458 kts 216°
2026-04-30 22:23 -24.53829 -47.33603 27249 ft 458 kts 216°
2026-04-30 22:24 -24.56538 -47.35491 27441 ft 459 kts 216°
2026-04-30 22:24 -24.59210 -47.37355 27620 ft 461 kts 217°
2026-04-30 22:24 -24.61948 -47.39266 27810 ft 462 kts 217°
2026-04-30 22:24 -24.64634 -47.41141 28046 ft 461 kts 217°
2026-04-30 22:25 -24.67346 -47.43035 28353 ft 459 kts 217°
2026-04-30 22:25 -24.70052 -47.44925 28687 ft 457 kts 217°
2026-04-30 22:25 -24.72695 -47.46773 28995 ft 456 kts 217°
2026-04-30 22:25 -24.75383 -47.48654 29275 ft 455 kts 217°
2026-04-30 22:26 -24.80694 -47.52374 29890 ft 453 kts 217°
2026-04-30 22:26 -24.83359 -47.54241 30253 ft 450 kts 217°
2026-04-30 22:26 -24.86006 -47.56097 30574 ft 448 kts 217°
2026-04-30 22:27 -24.88615 -47.57927 30828 ft 447 kts 217°
2026-04-30 22:27 -24.91249 -47.59777 31071 ft 447 kts 217°
2026-04-30 22:27 -24.96475 -47.63448 31660 ft 444 kts 217°
2026-04-30 22:28 -25.01644 -47.67084 32142 ft 443 kts 217°
2026-04-30 22:28 -25.04262 -47.68929 32125 ft 445 kts 217°
2026-04-30 22:29 -25.14604 -47.76216 32138 ft 440 kts 218°
2026-04-30 22:31 -25.32550 -47.88906 32138 ft 437 kts 218°
2026-04-30 22:32 -25.44521 -47.97432 32147 ft 439 kts 218°
2026-04-30 22:33 -25.57391 -48.06626 32138 ft 441 kts 218°
2026-04-30 22:35 -25.70296 -48.15819 32142 ft 442 kts 218°
2026-04-30 22:36 -25.83202 -48.24989 32145 ft 440 kts 218°
2026-04-30 22:37 -25.93507 -48.32338 32145 ft 438 kts 218°
2026-04-30 22:38 -26.03727 -48.39642 32163 ft 437 kts 219°
2026-04-30 22:39 -26.11389 -48.45128 32156 ft 436 kts 219°
2026-04-30 22:40 -26.26662 -48.56092 32149 ft 436 kts 219°
2026-04-30 22:41 -26.39388 -48.65293 32168 ft 436 kts 219°
2026-04-30 22:43 -26.54581 -48.76363 32154 ft 435 kts 220°
2026-04-30 22:44 -26.64716 -48.83807 32157 ft 435 kts 220°
2026-04-30 22:45 -26.79924 -48.94926 32158 ft 436 kts 220°
2026-04-30 22:47 -26.95085 -49.06020 32171 ft 434 kts 220°
2026-04-30 22:48 -27.05166 -49.13468 32147 ft 432 kts 221°
2026-04-30 22:49 -27.20295 -49.24596 32178 ft 434 kts 220°
2026-04-30 22:51 -27.35443 -49.35839 32195 ft 434 kts 220°
2026-04-30 22:52 -27.43054 -49.41445 32180 ft 436 kts 220°
2026-04-30 22:53 -27.53192 -49.48978 32187 ft 438 kts 220°
2026-04-30 22:53 -27.60282 -49.55300 32200 ft 430 kts 228°
2026-04-30 22:55 -27.71335 -49.66568 32182 ft 428 kts 228°
2026-04-30 22:56 -27.80194 -49.75501 32206 ft 427 kts 228°
2026-04-30 22:57 -27.91269 -49.86673 32178 ft 426 kts 228°
2026-04-30 22:58 -28.00088 -49.95610 32200 ft 426 kts 228°
2026-04-30 22:59 -28.13358 -50.09082 32171 ft 427 kts 228°